CW9244 Weather Reports


Display with metric or nautical units.
time (UTC)temp
F
wind
direction
speed
MPH
gust
MPH
rain 1hr
in
rain 24hr
in
rain mn
in
humidity
%
barometer
mb
20260831195826 77 337 0.0 0.0 0.00 0.02 0.00 70 1035.1
20260831194827 77 337 0.0 0.0 0.00 0.02 0.00 69 1035.2
20260831193829 77 337 0.0 0.0 0.00 0.02 0.00 69 1035.1
20260831191826 77 67 0.0 0.0 0.00 0.02 0.00 70 1035.1
20260831190826 78 67 0.0 0.0 0.00 0.02 0.00 70 1035.2
20260831185826 78 67 0.0 0.0 0.00 0.02 0.00 68 1035.3
20260831184826 78 67 0.0 1.0 0.00 0.02 0.00 68 1035.5
20260831182927 80 67 0.0 0.0 0.00 0.02 0.00 63 1035.8
20260831182025 81 67 0.0 1.0 0.00 0.02 0.00 63 1035.9
20260831181027 81 67 1.0 3.0 0.00 0.02 0.00 61 1035.8
20260831175126 81 67 0.0 0.0 0.00 0.02 0.00 61 1035.8
20260831173226 84 67 0.0 2.0 0.00 0.02 0.00 57 1035.6
20260831172226 83 67 0.0 0.0 0.00 0.02 0.00 60 1035.7
20260831170227 79 67 0.0 0.0 0.00 0.02 0.00 62 1036.0
20260831163228 78 67 0.0 0.0 0.00 0.02 0.00 63 1036.1
20260831162226 78 67 1.0 2.0 0.00 0.02 0.00 62 1036.2
20260831161324 78 67 0.0 0.0 0.00 0.02 0.00 61 1036.4
20260831155326 78 67 0.0 0.0 0.00 0.02 0.00 61 1036.1
20260831154425 78 67 0.0 0.0 0.00 0.02 0.00 62 1036.1
20260831153426 78 67 0.0 2.0 0.00 0.02 0.00 62 1036.1
20260831152426 78 67 0.0 1.0 0.00 0.02 0.00 60 1036.2
20260831151427 78 67 0.0 0.0 0.00 0.02 0.00 60 1036.3
20260831150526 77 67 0.0 0.0 0.00 0.02 0.00 60 1036.3
20260831145525 78 67 0.0 1.0 0.00 0.02 0.00 61 1036.3
20260831144525 78 67 1.0 3.0 0.00 0.02 0.00 63 1036.5
20260831143527 76 67 0.0 1.0 0.00 0.02 0.00 67 1036.5
20260831142625 75 67 1.0 5.0 0.00 0.02 0.00 69 1036.4
20260831141626 75 180 1.0 3.0 0.00 0.02 0.00 72 1036.3
20260831140628 74 67 1.0 2.0 0.00 0.02 0.00 73 1036.4
20260831135626 73 99 0.0 1.0 0.00 0.02 0.00 75 1036.3
20260831134626 73 72 2.0 4.0 0.00 0.02 0.00 77 1036.2
20260831133628 72 67 1.0 3.0 0.00 0.02 0.00 78 1036.2
20260831132725 71 337 0.0 3.0 0.00 0.02 0.00 80 1036.0
20260831131726 71 7 1.0 2.0 0.00 0.02 0.00 79 1036.1
20260831125726 71 337 0.0 0.0 0.00 0.02 0.00 81 1036.0
20260831123826 70 337 0.0 0.0 0.00 0.02 0.00 83 1036.0
20260831122826 70 71 0.0 3.0 0.00 0.02 0.00 83 1036.1
20260831121828 69 330 2.0 4.0 0.00 0.02 0.00 84 1036.0
20260831120826 69 315 1.0 2.0 0.00 0.02 0.00 85 1036.2
20260831115827 69 315 0.0 2.0 0.00 0.02 0.00 85 1036.1
20260831114826 68 337 2.0 3.0 0.00 0.02 0.00 86 1036.1
20260831113925 68 337 1.0 2.0 0.00 0.02 0.00 86 1036.1
20260831112927 68 337 1.0 2.0 0.00 0.02 0.00 87 1035.8
20260831111926 67 315 0.0 0.0 0.00 0.02 0.00 87 1035.8
20260831111025 67 337 0.0 0.0 0.00 0.02 0.00 87 1035.7
20260831110026 67 337 0.0 0.0 0.00 0.02 0.00 87 1035.6
20260831105026 67 337 0.0 0.0 0.00 0.02 0.00 87 1035.5
20260831104026 67 337 0.0 0.0 0.00 0.02 0.00 87 1035.4
20260831103027 67 180 0.0 0.0 0.00 0.02 0.00 88 1035.4
20260831102028 68 337 0.0 1.0 0.00 0.02 0.00 87 1035.3
20260831101026 68 337 0.0 0.0 0.00 0.02 0.00 87 1035.3
20260831095026 68 337 0.0 0.0 0.00 0.02 0.00 87 1035.0
20260831094028 68 67 0.0 1.0 0.00 0.02 0.00 86 1035.1
20260831093126 68 354 0.0 1.0 0.00 0.02 0.00 86 1034.9
20260831092126 68 67 0.0 2.0 0.00 0.02 0.00 87 1034.9
20260831091225 68 90 0.0 0.0 0.00 0.02 0.00 87 1035.0
20260831090225 68 315 0.0 0.0 0.00 0.02 0.00 88 1034.9
20260831085226 68 357 0.0 2.0 0.00 0.02 0.00 88 1034.7
20260831084226 69 337 0.0 0.0 0.00 0.02 0.00 88 1034.8
20260831083325 69 337 0.0 0.0 0.00 0.02 0.00 88 1035.0
20260831083227 69 337 0.0 0.0 0.00 0.02 0.00 88 1035.1
20260831082326 69 337 0.0 0.0 0.00 0.02 0.00 89 1035.0
20260831081325 69 180 0.0 0.0 0.00 0.02 0.00 89 1034.9
20260831080325 69 67 0.0 0.0 0.00 0.02 0.00 90 1034.7
20260831075327 70 337 0.0 0.0 0.00 0.02 0.00 90 1034.9
20260831074326 70 337 0.0 1.0 0.00 0.02 0.00 90 1034.8
20260831071428 71 337 0.0 1.0 0.00 0.02 0.00 89 1034.9
20260831070426 71 337 0.0 1.0 0.00 0.02 0.00 89 1034.6
20260831064525 71 292 0.0 1.0 0.00 0.02 0.00 89 1034.5
20260831063526 71 315 1.0 2.0 0.00 0.02 0.00 89 1034.7
20260831062526 71 315 0.0 1.0 0.00 0.02 0.00 89 1034.6
20260831061624 71 315 0.0 1.0 0.00 0.02 0.00 89 1034.6
20260831060626 71 292 0.0 1.0 0.00 0.02 0.00 89 1034.5
20260831055624 71 292 0.0 0.0 0.00 0.02 0.00 89 1034.7
20260831054626 71 292 1.0 1.0 0.00 0.02 0.00 89 1034.6
20260831052626 71 295 1.0 2.0 0.00 0.02 0.00 90 1034.5
20260831051627 71 315 0.0 1.0 0.00 0.02 0.00 90 1034.5
20260831050725 71 315 0.0 2.0 0.00 0.02 0.00 91 1034.5
20260831044725 72 315 0.0 0.0 0.00 0.02 0.00 91 1034.3
20260831043824 72 315 0.0 0.0 0.00 0.02 0.00 91 1034.2
20260831042826 72 292 0.0 1.0 0.00 0.02 0.00 91 1034.2
20260831041827 72 292 0.0 0.0 0.00 0.02 0.00 91 1034.2
20260831040825 72 292 0.0 1.0 0.00 0.02 0.00 91 1034.2
20260831035915 72 315 1.0 2.0 0.00 0.02 0.02 91 1034.2
20260831034915 72 315 0.0 1.0 0.00 0.02 0.02 91 1034.2
20260831033916 72 315 0.0 1.0 0.00 0.02 0.02 91 1034.3
20260831032915 72 292 0.0 0.0 0.00 0.02 0.02 91 1034.3
20260831031914 72 292 0.0 0.0 0.00 0.02 0.02 91 1034.4
20260831031013 73 292 0.0 0.0 0.00 0.02 0.02 91 1034.6
20260831030015 73 292 0.0 0.0 0.01 0.02 0.02 91 1034.7
20260831024013 73 292 0.0 0.0 0.02 0.02 0.02 91 1035.0
20260831022013 73 292 0.0 1.0 0.02 0.02 0.02 90 1034.7
20260831021015 74 270 0.0 1.0 0.02 0.02 0.02 90 1034.9
20260831020112 73 112 0.0 0.0 0.01 0.01 0.01 89 1035.0
20260831014114 73 112 0.0 0.0 0.00 0.00 0.00 89 1034.9
20260831013115 73 112 0.0 0.0 0.00 0.00 0.00 88 1034.6
20260831012116 74 112 0.0 0.0 0.00 0.00 0.00 88 1034.6
20260831011213 74 202 0.0 0.0 0.00 0.00 0.00 87 1034.7
20260831010214 74 247 0.0 0.0 0.00 0.00 0.00 87 1034.6
20260831005215 74 247 0.0 1.0 0.00 0.00 0.00 86 1034.5
20260831004313 74 315 0.0 0.0 0.00 0.00 0.00 86 1034.2
20260831003314 74 225 0.0 0.0 0.00 0.00 0.00 86 1034.1
20260831002413 74 225 1.0 1.0 0.00 0.00 0.00 86 1034.0
20260831001413 74 270 0.0 0.0 0.00 0.00 0.00 85 1034.0
20260831000414 74 247 0.0 1.0 0.00 0.00 0.00 85 1034.0
20260830235414 74 327 0.0 1.0 0.00 0.00 0.00 84 1033.9
20260830234413 74 202 0.0 0.0 0.00 0.00 0.00 84 1034.0
20260830233414 74 135 0.0 1.0 0.00 0.00 0.00 84 1033.7
20260830232413 74 229 0.0 2.0 0.00 0.00 0.00 83 1033.8
20260830230515 75 67 0.0 0.0 0.00 0.00 0.00 82 1033.8
20260830224516 75 67 0.0 1.0 0.00 0.00 0.00 81 1033.8
20260830223514 75 292 0.0 0.0 0.00 0.00 0.00 80 1033.9
20260830222612 75 208 0.0 2.0 0.00 0.00 0.00 80 1034.1
20260830221612 76 228 0.0 2.0 0.00 0.00 0.00 79 1034.1
20260830220616 76 201 0.0 3.0 0.00 0.00 0.00 78 1034.0
20260830215617 76 202 0.0 1.0 0.00 0.00 0.00 77 1034.0
20260830214613 76 218 0.0 2.0 0.00 0.00 0.00 76 1034.0
20260830213614 77 157 0.0 1.0 0.00 0.00 0.00 76 1034.0
20260830212613 77 133 1.0 3.0 0.00 0.00 0.00 75 1034.0
20260830211713 77 202 0.0 2.0 0.00 0.00 0.00 74 1034.0
20260830210812 77 88 0.0 1.0 0.00 0.00 0.00 73 1034.2
20260830203815 77 225 0.0 1.0 0.00 0.00 0.00 72 1034.2
20260830201914 79 225 0.0 0.0 0.00 0.00 0.00 69 1034.5